TimeGMT,TemperatureF,Dew PointF,Humidity,Sea Level PressureIn,VisibilityMPH,Wind Direction,Wind SpeedMPH,Gust SpeedMPH,PrecipitationIn,Events,Conditions,WindDirDegrees,DateUTC
12:20 AM,42.8,39.2,87,30.09,3.1,Variable,3.5,-,N/A,,Haze,0,2012-11-16 00:20:00
12:50 AM,42.8,39.2,87,30.09,-9999.0,Variable,2.3,-,N/A,,Haze,0,2012-11-16 00:50:00
1:20 AM,42.8,39.2,87,30.06,-9999.0,East,3.5,-,N/A,,Haze,80,2012-11-16 01:20:00
1:50 AM,42.8,39.2,87,30.06,2.8,Variable,2.3,-,N/A,,Haze,0,2012-11-16 01:50:00
2:20 AM,42.8,39.2,87,30.06,2.8,East,3.5,-,N/A,,Haze,80,2012-11-16 02:20:00
2:50 AM,42.8,39.2,87,30.06,3.1,Variable,2.3,-,N/A,,Haze,0,2012-11-16 02:50:00
3:20 AM,42.8,39.2,87,30.06,-9999.0,East,2.3,-,N/A,,Haze,80,2012-11-16 03:20:00
3:50 AM,42.8,39.2,87,30.04,2.8,ESE,3.5,-,N/A,,Haze,110,2012-11-16 03:50:00
4:20 AM,42.8,39.2,87,30.04,2.5,East,3.5,-,N/A,,Haze,80,2012-11-16 04:20:00
4:50 AM,42.8,39.2,87,30.04,2.5,East,3.5,-,N/A,,Haze,100,2012-11-16 04:50:00
5:20 AM,42.8,39.2,87,30.04,2.5,East,5.8,-,N/A,,Haze,100,2012-11-16 05:20:00
5:50 AM,42.8,39.2,87,30.04,2.2,East,4.6,-,N/A,,Haze,100,2012-11-16 05:50:00
6:20 AM,42.8,39.2,87,30.04,1.2,East,3.5,-,N/A,,Haze,90,2012-11-16 06:20:00
6:50 AM,42.8,41.0,93,30.04,1.2,East,3.5,-,N/A,,Haze,80,2012-11-16 06:50:00
7:20 AM,42.8,41.0,93,30.04,1.2,East,2.3,-,N/A,,Haze,80,2012-11-16 07:20:00
7:50 AM,42.8,41.0,93,30.04,1.1,East,3.5,-,N/A,,Haze,80,2012-11-16 07:50:00
8:20 AM,42.8,41.0,93,30.04,1.1,East,4.6,-,N/A,,Haze,90,2012-11-16 08:20:00
8:50 AM,42.8,41.0,93,30.01,1.1,East,4.6,-,N/A,,Haze,80,2012-11-16 08:50:00
9:20 AM,42.8,42.8,100,30.01,0.9,East,4.6,-,N/A,,Haze,80,2012-11-16 09:20:00
9:50 AM,44.6,42.8,93,30.01,0.9,East,4.6,-,N/A,,Mostly Cloudy,100,2012-11-16 09:50:00
10:20 AM,44.6,42.8,93,30.01,0.7,East,4.6,-,N/A,,Mostly Cloudy,100,2012-11-16 10:20:00
10:50 AM,44.6,44.6,100,29.98,0.5,East,4.6,-,N/A,Fog,Fog,90,2012-11-16 10:50:00
11:20 AM,46.4,44.6,93,29.98,0.7,East,4.6,-,N/A,,Mostly Cloudy,90,2012-11-16 11:20:00
11:50 AM,46.4,46.4,100,29.98,0.7,Variable,3.5,-,N/A,,Mostly Cloudy,0,2012-11-16 11:50:00
12:20 PM,46.4,46.4,100,29.95,1.2,ESE,4.6,-,N/A,,Overcast,120,2012-11-16 12:20:00
12:50 PM,48.2,46.4,93,29.95,1.1,ESE,5.8,-,N/A,,Overcast,120,2012-11-16 12:50:00
1:20 PM,48.2,46.4,93,29.95,0.7,SE,5.8,-,N/A,,Mostly Cloudy,130,2012-11-16 13:20:00
1:50 PM,48.2,46.4,93,29.95,0.4,SSE,5.8,-,N/A,Fog,Fog,160,2012-11-16 13:50:00
2:20 PM,48.2,46.4,93,29.92,0.4,SE,4.6,-,N/A,Fog,Fog,140,2012-11-16 14:20:00
2:50 PM,48.2,46.4,93,29.92,0.6,ESE,5.8,-,N/A,Fog,Fog,110,2012-11-16 14:50:00
3:20 PM,48.2,46.4,93,29.89,0.9,ESE,5.8,-,N/A,,Mostly Cloudy,120,2012-11-16 15:20:00
3:50 PM,48.2,46.4,93,29.89,0.5,ESE,5.8,-,N/A,Fog,Fog,110,2012-11-16 15:50:00
4:20 PM,48.2,46.4,93,29.89,0.6,ESE,5.8,-,N/A,Fog-Rain,Light Rain,120,2012-11-16 16:20:00
4:50 PM,48.2,46.4,93,29.89,1.0,ESE,4.6,-,N/A,Rain,Light Rain,110,2012-11-16 16:50:00
5:20 PM,48.2,48.2,100,29.89,1.4,ESE,5.8,-,N/A,,Mostly Cloudy,120,2012-11-16 17:20:00
5:50 PM,48.2,48.2,100,29.86,1.9,ESE,6.9,-,N/A,,Mostly Cloudy,110,2012-11-16 17:50:00
6:20 PM,48.2,48.2,100,29.86,2.2,East,4.6,-,N/A,,Mostly Cloudy,100,2012-11-16 18:20:00
6:50 PM,48.2,48.2,100,29.86,2.8,ESE,5.8,-,N/A,,Mostly Cloudy,120,2012-11-16 18:50:00
7:20 PM,50.0,48.2,94,29.86,3.1,SE,8.1,-,N/A,,Haze,130,2012-11-16 19:20:00
7:50 PM,50.0,48.2,94,29.83,3.1,SE,9.2,-,N/A,,Haze,140,2012-11-16 19:50:00
8:20 PM,50.0,48.2,94,29.83,3.1,SE,6.9,-,N/A,,Haze,130,2012-11-16 20:20:00
8:50 PM,50.0,48.2,94,29.83,2.8,SE,5.8,-,N/A,,Haze,140,2012-11-16 20:50:00
9:20 PM,50.0,48.2,94,29.80,2.8,SE,8.1,-,N/A,,Haze,130,2012-11-16 21:20:00
9:50 PM,50.0,48.2,94,29.80,3.1,ESE,6.9,-,N/A,,Haze,120,2012-11-16 21:50:00
10:20 PM,50.0,46.4,87,29.80,3.1,SE,4.6,-,N/A,,Haze,140,2012-11-16 22:20:00
10:50 PM,50.0,48.2,94,29.80,3.1,SSE,6.9,-,N/A,,Haze,160,2012-11-16 22:50:00
11:20 PM,50.0,48.2,94,29.77,3.1,SSE,6.9,-,N/A,,Haze,150,2012-11-16 23:20:00
11:50 PM,50.0,48.2,94,29.77,3.1,SSE,5.8,-,N/A,,Haze,160,2012-11-16 23:50:00